Flag Weather past 2 weeks in Salalah, Oman

Now
77 °F

Warm.


Feels Like: 79 °F
Forecast: 71 / 85 °F
Wind: 5 mph from North

Location: Salalah Airport

Current Time: Nov 26, 2014 at 10:58:43 PM

Latest Report: Nov 26, 2014 at 9:50 PM


Visibility: N/A

Pressure: 29.92 "Hg

Humidity: 65%

Dew point: 64 °F

Location of SalalahLocation

Historic Weather in Salalah — Graph

°F

Salalah temperature yesterday

Maximum temperature yesterday: 82 °F (at 10:50 AM)
Minimum temperature yesterday: 72 °F (at 6:50 AM)
Average temperature yesterday: 78 °F

Past Weeks' High & Low Weather Summary

 TemperatureHumidityPressure
High90 °F (Nov 21, 11:50 AM)79% (Nov 15, 9:50 PM)30.07 "Hg (Nov 15, 9:50 PM)
Low70 °F (Nov 13, 12:50 AM)15% (Nov 12, 11:50 AM)29.86 "Hg (Nov 23, 1:50 PM)
Average80 °F51%29.95 "Hg
* Reported Nov 11 8:50 PM — Nov 26 8:50 PM, Salalah, Weather by CustomWeather, © 2014

Note: Actual official high and low records may vary slightly from our data, if they occured in-between our weather recording intervals... More about our weather records

Advertising

Salalah weather history for previous 24 hours

 ConditionsComfort  
Time TempWeatherWind HumidityBarometerVisibility
8:50 PM
Nov 26
79 °FClear.2 mph61%29.92 "Hg10 mi
7:50 PM79 °FClear.2 mph61%29.92 "Hg10 mi
6:50 PM79 °FClear.3 mph61%29.89 "Hg10 mi
5:50 PM81 °FWarm.5 mph58%29.89 "HgN/A
4:50 PM82 °FPassing clouds.6 mph51%29.86 "HgN/A
3:50 PM82 °FWarm.7 mph48%29.86 "HgN/A
2:50 PM84 °FPassing clouds.8 mph45%29.86 "HgN/A
1:50 PM84 °FWarm.7 mph45%29.86 "HgN/A
12:50 PM84 °FWarm.7 mph45%29.89 "HgN/A
11:50 AM84 °FPassing clouds.6 mph48%29.92 "HgN/A
10:50 AM84 °FScattered clouds.7 mph48%29.95 "HgN/A
9:50 AM82 °FWarm.8 mph51%29.95 "HgN/A
8:50 AM81 °FScattered clouds.5 mph54%29.98 "HgN/A
7:50 AM79 °FWarm.5 mph58%29.95 "HgN/A
6:50 AM77 °FWarm.3 mph57%29.95 "HgN/A
5:50 AM77 °FPassing clouds.7 mph61%29.92 "HgN/A
4:50 AM77 °FPassing clouds.8 mph61%29.92 "HgN/A
3:50 AM79 °FWarm.5 mph58%29.89 "HgN/A
2:50 AM79 °FPassing clouds.1 mph61%29.89 "HgN/A
1:50 AM79 °FPassing clouds.1 mph61%29.89 "HgN/A
12:50 AM79 °FPassing clouds.2 mph58%29.92 "HgN/A
11:50 PM
Nov 25
77 °FPassing clouds.2 mph65%29.92 "HgN/A
10:50 PM79 °FWarm.1 mph61%29.92 "HgN/A
Weather by CustomWeather, © 2014

See weather overviewHow to use our weather pages